Powrót do katalogu

STARLINK-34684

AktywnyŁącznośćSSO
NORAD 64862·PAYLOAD·🇺🇸 United States

Wystrzelony Jul 19, 2025 z Vandenberg Space Force Base

Loading…

Następne Przeloty (najbliższe 24 godziny)

TLE

ŚwieżeSource: CelesTrak SupGP

Epoka: Sep 14, 2026, 22:58 UTC

1 64862C 25152W   26257.95743056  .00090028  00000+0  27959-2 0  2571
2 64862  97.2840 108.5998 0001665 108.5610 277.1640 15.33378907    11

Śledź STARLINK-34684 w czasie rzeczywistym z AllMySat

Download on the App Store